Location: Newark
(48.9758°N, 29.9167°E)
Time: 05:11:30
(UTC+00:00)

Envisat - Visible Passes

Search period start: 18 September 2019 00:00
Search period end: 28 September 2019 00:00
Orbit: 764 x 766 km, 98.1° (Epoch: 17 September)

Date Brightness Start Highest point End Pass type
(mag) Time Alt. Az. Time Alt. Az. Time Alt. Az.
18 Sep 5.8 17:20:59 10° SW 17:24:41 20° W 17:28:26 10° NW visible
19 Sep 4.6 16:42:50 10° SSW 16:47:36 40° W 16:52:24 10° NNW visible
20 Sep 6.2 17:48:38 10° WSW 17:50:34 12° W 17:52:30 10° WNW visible
21 Sep 5.5 17:09:11 10° SSW 17:13:19 25° W 17:17:29 10° NW visible
22 Sep 4.1 16:31:22 10° S 16:36:17 49° W 16:41:15 10° NNW visible
23 Sep 6.0 17:36:15 10° WSW 17:39:08 15° W 17:42:03 10° NW visible
24 Sep 5.1 16:57:31 10° SSW 17:01:58 30° W 17:06:26 10° NNW visible
25 Sep 3.7 16:19:58 10° S 16:25:00 61° W 16:30:03 10° NNW visible
26 Sep 5.9 17:24:13 10° SW 17:27:44 19° W 17:31:17 10° NW visible
27 Sep 4.7 16:45:56 10° SSW 16:50:37 37° W 16:55:21 10° NNW visible
